| time (UTC) | temp C | wind direction | speed KPH | gust KPH | rain 1hr cm | rain 24hr cm | rain mn cm | humidity % | barometer mb |
| 20260507150036 | 12 | 0.0 | 1.6 | 0.00 | 0.23 | 0.15 | 64 | 1012.3 | |
| 20260507143036 | 11 | 0.0 | 1.6 | 0.00 | 0.23 | 0.15 | 65 | 1012.6 | |
| 20260507140016 | 11 | 0.0 | 1.6 | 0.00 | 0.36 | 0.15 | 53 | 1012.8 | |
| 20260507133016 | 11 | 0.0 | 1.6 | 0.00 | 0.51 | 0.15 | 47 | 1012.9 | |
| 20260507130018 | 11 | 0.0 | 0.0 | 0.00 | 0.61 | 0.15 | 6 | 1012.6 | |
| 20260507123038 | 11 | 0.0 | 0.0 | 0.00 | 0.69 | 0.15 | 9 | 1012.7 | |
| 20260507120018 | 10 | 0.0 | 0.0 | 0.00 | 0.71 | 0.15 | 1 | 1012.5 | |
| 20260507113017 | 10 | 0.0 | 0.0 | 0.00 | 0.71 | 0.15 | 1 | 1012.4 | |
| 20260507110017 | 11 | 0.0 | 0.0 | 0.00 | 0.71 | 0.15 | 1 | 1012.2 | |
| 20260507103017 | 12 | 0.0 | 0.0 | 0.00 | 0.71 | 0.15 | 1 | 1011.9 | |
| 20260507100017 | 12 | 0.0 | 0.0 | 0.00 | 0.71 | 0.15 | 1 | 1011.6 | |
| 20260507093017 | 12 | 0.0 | 0.0 | 0.00 | 0.71 | 0.15 | 1 | 1011.4 | |
| 20260507090058 | 12 | 0.0 | 0.0 | 0.00 | 0.71 | 0.15 | 1 | 1011.7 | |
| 20260507083017 | 12 | 0.0 | 0.0 | 0.00 | 0.71 | 0.15 | 1 | 1011.4 | |
| 20260507080017 | 12 | 0.0 | 0.0 | 0.00 | 0.71 | 0.15 | 1 | 1010.8 | |
| 20260507073017 | 13 | 0.0 | 1.6 | 0.00 | 0.71 | 0.15 | 1 | 1010.5 | |
| 20260507070017 | 13 | 0.0 | 1.6 | 0.03 | 0.71 | 0.15 | 1 | 1010.5 | |
| 20260507063017 | 13 | 0.0 | 0.0 | 0.05 | 0.71 | 0.15 | 1 | 1010.6 | |
| 20260507060017 | 13 | 0.0 | 1.6 | 0.08 | 0.69 | 0.13 | 1 | 1010.3 | |
| 20260507053017 | 14 | 0.0 | 1.6 | 0.10 | 0.66 | 0.10 | 1 | 1010.7 | |
| 20260507050018 | 15 | 0.0 | 1.6 | 0.05 | 0.61 | 0.05 | 1 | 1011.0 | |
| 20260507043017 | 15 | 0.0 | 1.6 | 0.00 | 0.56 | 0.00 | 38 | 1010.6 | |
| 20260507040017 | 16 | 0.0 | 1.6 | 0.00 | 0.56 | 0.00 | 31 | 1010.3 | |
| 20260507033016 | 17 | 0.0 | 1.6 | 0.00 | 0.56 | 0.00 | 43 | 1010.2 | |
| 20260507030037 | 17 | 0.0 | 1.6 | 0.00 | 0.56 | 0.00 | 43 | 1009.5 | |
| 20260507023016 | 17 | 0.0 | 1.6 | 0.00 | 0.56 | 0.00 | 47 | 1009.4 | |
| 20260507020016 | 18 | 0.0 | 3.2 | 0.00 | 0.56 | 0.00 | 42 | 1009.2 | |
| 20260507013017 | 19 | 0.0 | 1.6 | 0.00 | 0.56 | 0.00 | 29 | 1009.7 | |
| 20260507010058 | 19 | 0.0 | 0.0 | 0.00 | 0.56 | 0.00 | 1 | 1009.4 | |
| 20260507003017 | 20 | 0.0 | 0.0 | 0.00 | 0.56 | 0.00 | 7 | 1009.1 | |
| 20260507000016 | 20 | 0.0 | 1.6 | 0.00 | 0.56 | 0.56 | 12 | 1008.8 | |
| 20260506233017 | 20 | 0.0 | 1.6 | 0.00 | 0.56 | 0.56 | 22 | 1008.5 | |
| 20260506230016 | 20 | 0.0 | 3.2 | 0.00 | 0.56 | 0.56 | 25 | 1008.2 | |
| 20260506223017 | 21 | 0.0 | 4.8 | 0.00 | 0.56 | 0.56 | 27 | 1008.1 | |
| 20260506220016 | 21 | 0.0 | 6.4 | 0.00 | 0.56 | 0.56 | 33 | 1008.2 | |
| 20260506213016 | 21 | 0.0 | 6.4 | 0.00 | 0.56 | 0.56 | 47 | 1008.1 | |
| 20260506210016 | 21 | 0.0 | 4.8 | 0.00 | 0.56 | 0.56 | 39 | 1007.7 | |
| 20260506203016 | 21 | 0.0 | 6.4 | 0.00 | 0.56 | 0.56 | 44 | 1007.6 | |
| 20260506200016 | 21 | 158 | 1.6 | 4.8 | 0.00 | 0.56 | 0.56 | 41 | 1007.8 |
| 20260506193016 | 20 | 225 | 1.6 | 11.3 | 0.00 | 0.56 | 0.56 | 34 | 1007.8 |
| 20260506190016 | 20 | 225 | 1.6 | 11.3 | 0.00 | 0.56 | 0.56 | 22 | 1008.1 |
| 20260506183016 | 18 | 225 | 1.6 | 11.3 | 0.00 | 0.56 | 0.56 | 6 | 1008.5 |
| 20260506180016 | 18 | 225 | 1.6 | 9.7 | 0.00 | 0.56 | 0.56 | 1 | 1008.6 |
| 20260506173016 | 17 | 225 | 1.6 | 14.5 | 0.00 | 0.56 | 0.56 | 1 | 1008.7 |
| 20260506170016 | 17 | 225 | 1.6 | 8.0 | 0.00 | 0.56 | 0.56 | 1 | 1008.8 |
| 20260506163016 | 17 | 0.0 | 8.0 | 0.00 | 0.56 | 0.56 | 1 | 1008.9 | |
| 20260506160017 | 16 | 225 | 1.6 | 12.9 | 0.08 | 0.56 | 0.56 | 1 | 1009.1 |
| 20260506153016 | 16 | 0.0 | 6.4 | 0.10 | 0.56 | 0.56 | 1 | 1009.4 |